Location: Sungai Dangang
(2.7500°N, 113.8333°E)
Time: 06:09:45
(UTC+00:00)

Cosmos 2263 Rocket - Pass Details

Date: 16 May 2021
Orbit: 822 x 849 km, 71.0° (Epoch: 16 June)

Event Time Altitude Azimuth Distance (km) Brightness Sun altitude
Rises 19:26:29 0° 9° (N) 3,392 5.8 -39.4°
Reaches altitude 10° 19:29:27 10° 24° (NNE) 2,462 5.1 -38.8°
Maximum altitude 19:33:46 22° 74° (ENE) 1,754 4.3 -37.8°
Drops below altitude 10° 19:38:05 10° 124° (ESE) 2,470 4.9 -36.8°
Sets 19:41:02 0° 138° (SE) 3,407 5.5 -36.2°
